Location: Morisset
(33.1080°S, 151.4871°E)
Time: 08:53:21
(UTC+00:00)

Cosmos 1420 Rocket - Pass Details

Date: 29 October 2020
Orbit: 755 x 780 km, 74.0° (Epoch: 27 November)

Event Time Altitude Azimuth Distance (km) Brightness Sun altitude
Exits shadow 17:30:24 17° 348° (NNW) 1,878 5.6 -17.4°
Maximum altitude 17:34:31 83° 74° (ENE) 784 4.0 -16.7°
Drops below altitude 10° 17:39:51 10° 161° (SSE) 2,340 7.2 -15.7°
Sets 17:42:16 0° 162° (SSE) 3,278 8.0 -15.2°
